Visibility
15.0 15.0 15.0 15.0 15.0 15.0 15.0 15.0 15.0 15.0 15.0 15.0 15.0 15.0 15.0 15.0 15.0 15.0 15.0 15.0 15.0 15.0 15.0 15.0 15.0 15.0 15.0 15.0 15.0 15.0 15.0 15.0 15.0 15.0 15.0 15.0 15.0 15.0 15.0 15.0 15.0 15.0 15.0
15.0 15.0 15.0 15.0 15.0 15.0 15.0 15.0 15.0 15.0 15.0 15.0 15.0 15.0 15.0 15.0 15.0 15.0 15.0 15.0 15.0 15.0 15.0 15.0 15.0 15.0 15.0 15.0 15.0 15.0 15.0 15.0 15.0 15.0 15.0 15.0 15.0 15.0 15.0 15.0 15.0 15.0 15.0
15.0 14.5 15.0 15.0 15.0 15.0 15.0 15.0 15.0 15.0 15.0 15.0 15.0 15.0 15.0 15.0 15.0 15.0 15.0 15.0 15.0 15.0 15.0 15.0 15.0 15.0 15.0 15.0 15.0 15.0 15.0 15.0 15.0 15.0 15.0 15.0 15.0 15.0 15.0 15.0 15.0 15.0 15.0
15.0 15.0 15.0 15.0 15.0 15.0 15.0 15.0 15.0 15.0 15.0 15.0 15.0 15.0 15.0 15.0 15.0 15.0 15.0 15.0 15.0 15.0 15.0 15.0 15.0 15.0 15.0 15.0 15.0 15.0 15.0 15.0 15.0 15.0 15.0 15.0 15.0 15.0 15.0 15.0 15.0 15.0 15.0
11.3 15.0 14.0 15.0 15.0 15.0 15.0 12.7 15.0 15.0 15.0 15.0 15.0 15.0 15.0 15.0 15.0 15.0 15.0 15.0 15.0 15.0 15.0 15.0 15.0 15.0 15.0 15.0 15.0 15.0 15.0 15.0 15.0 15.0 15.0 15.0 15.0 15.0 15.0 15.0 14.3 15.0 15.0
15.0 14.9 15.0 14.7 15.0 15.0 15.0 15.0 15.0 15.0 15.0 15.0 15.0 15.0 15.0 15.0 15.0 15.0 15.0 15.0 15.0 15.0 15.0 15.0 15.0 15.0 15.0 15.0 15.0 15.0 15.0 15.0 15.0 6.8 15.0 15.0 15.0 15.0 15.0 15.0 15.0 15.0 3.2
11.8 15.0 13.6 15.0 15.0 15.0 15.0 15.0 15.0 15.0 15.0 15.0 15.0 15.0 15.0 15.0 15.0 15.0 15.0 15.0 15.0 15.0 15.0 15.0 15.0 15.0 15.0 15.0 15.0 15.0 15.0 15.0 15.0 15.0 15.0 15.0 15.0 15.0 15.0 14.0 15.0 15.0 1.2
14.7 15.0 15.0 15.0 15.0 15.0 15.0 15.0 15.0 15.0 15.0 15.0 15.0 15.0 15.0 15.0 15.0 15.0 15.0 15.0 15.0 15.0 15.0 15.0 15.0 15.0 15.0 15.0 15.0 15.0 15.0 15.0 15.0 15.0 15.0 15.0 15.0 15.0 15.0 7.0 0.1 0.2 9.0
15.0 15.0 15.0 15.0 15.0 15.0 6.5 7.4 14.7 15.0 15.0 15.0 15.0 15.0 15.0 15.0 15.0 15.0 15.0 15.0 15.0 15.0 15.0 15.0 15.0 15.0 15.0 15.0 15.0 15.0 15.0 15.0 15.0 15.0 15.0 15.0 15.0 15.0 15.0 4.4 14.4 3.7 6.5
15.0 15.0 15.0 15.0 8.2 9.4 15.0 15.0 15.0 15.0 15.0 15.0 15.0 15.0 15.0 15.0 15.0 15.0 15.0 15.0 15.0 15.0 15.0 15.0 15.0 15.0 15.0 15.0 15.0 15.0 15.0 15.0 15.0 15.0 15.0 15.0 15.0 15.0 15.0 15.0 15.0 0.4 0.6
10.9 15.0 14.6 7.5 12.6 15.0 15.0 15.0 15.0 15.0 15.0 15.0 15.0 15.0 15.0 15.0 15.0 15.0 15.0 15.0 15.0 15.0 15.0 15.0 15.0 15.0 15.0 15.0 15.0 15.0 15.0 15.0 15.0 15.0 15.0 15.0 15.0 15.0 15.0 15.0 15.0 15.0 1.5
15.0 15.0 15.0 15.0 15.0 15.0 15.0 15.0 15.0 15.0 15.0 15.0 15.0 15.0 15.0 15.0 15.0 15.0 15.0 15.0 15.0 15.0 15.0 15.0 15.0 15.0 15.0 15.0 15.0 15.0 15.0 15.0 9.3 15.0 15.0 15.0 15.0 15.0 15.0 15.0 15.0 15.0 15.0
15.0 15.0 15.0 15.0 15.0 15.0 15.0 15.0 15.0 15.0 15.0 15.0 15.0 15.0 15.0 15.0 15.0 15.0 15.0 15.0 15.0 15.0 15.0 15.0 15.0 15.0 15.0 15.0 15.0 15.0 15.0 15.0 15.0 7.2 15.0 15.0 15.0 15.0 15.0 15.0 15.0 15.0 15.0
15.0 15.0 15.0 15.0 15.0 15.0 15.0 15.0 15.0 15.0 15.0 15.0 15.0 15.0 15.0 15.0 15.0 15.0 15.0 15.0 15.0 0.7 12.8 14.7 15.0 15.0 14.7 13.7 12.7 15.0 15.0 15.0 15.0 15.0 15.0 15.0 14.7 15.0 15.0 15.0 15.0 15.0 15.0
15.0 15.0 15.0 15.0 15.0 15.0 15.0 15.0 15.0 15.0 15.0 15.0 15.0 15.0 15.0 15.0 15.0 15.0 15.0 15.0 15.0 6.6 3.1 0.3 0.4 7.9 10.0 13.9 15.0 15.0 15.0 15.0 9.8 9.5 15.0 15.0 5.8 5.8 12.4 15.0 15.0 15.0 10.6
15.0 15.0 15.0 15.0 15.0 15.0 15.0 15.0 15.0 15.0 15.0 15.0 15.0 15.0 15.0 15.0 15.0 15.0 15.0 15.0 15.0 0.4 0.1 0.6 2.1 8.6 6.4 12.8 15.0 15.0 15.0 15.0 15.0 15.0 14.2 7.9 8.3 4.3 4.5 14.4 15.0 15.0 15.0
15.0 15.0 15.0 15.0 15.0 15.0 15.0 15.0 15.0 15.0 15.0 15.0 15.0 15.0 15.0 15.0 15.0 15.0 15.0 15.0 0.3 0.0 0.1 4.2 11.1 5.4 5.2 14.8 15.0 14.8 14.8 15.0 15.0 15.0 15.0 15.0 4.7 4.4 4.1 4.6 4.8 4.9 15.0
15.0 15.0 15.0 15.0 15.0 15.0 15.0 14.9 15.0 4.6 0.3 9.4 15.0 13.7 15.0 15.0 15.0 15.0 15.0 10.4 0.0 0.0 0.1 5.6 11.1 15.0 15.0 15.0 15.0 15.0 15.0 5.6 15.0 14.9 6.8 7.8 4.1 4.1 4.1 4.1 11.6 1.6 1.9
15.0 15.0 15.0 15.0 15.0 8.1 0.4 0.3 0.1 0.1 1.7 10.6 15.0 8.4 7.9 15.0 15.0 15.0 15.0 10.7 0.3 0.2 0.5 0.1 3.5 15.0 15.0 15.0 15.0 15.0 12.6 15.0 15.0 7.8 4.3 7.6 4.1 4.1 4.1 4.7 4.1 4.0 1.7
15.0 15.0 15.0 15.0 15.0 15.0 15.0 15.0 15.0 7.4 0.4 4.0 2.1 12.6 0.7 0.0 0.7 15.0 12.1 15.0 3.1 0.4 1.5 0.1 0.1 12.0 15.0 15.0 15.0 15.0 7.9 15.0 6.3 5.6 12.7 4.2 4.1 4.1 4.1 8.9 4.1 1.6 1.4
15.0 15.0 15.0 15.0 14.6 14.1 8.4 9.2 5.0 13.6 7.5 15.0 0.2 0.1 0.8 0.6 14.9 8.6 14.8 15.0 2.0 1.0 1.2 0.3 0.1 13.5 15.0 0.4 2.6 15.0 9.3 8.2 15.0 15.0 15.0 4.1 3.6 4.1 14.9 4.9 4.1 4.0 3.9
15.0 7.6 2.3 5.1 11.1 7.9 2.5 0.6 0.2 0.4 0.4 2.1 15.0 5.6 5.5 0.1 2.4 4.3 3.9 1.3 0.7 3.0 0.7 0.1 0.1 0.9 2.1 0.3 0.7 2.1 7.6 13.6 15.0 15.0 15.0 5.7 13.8 10.2 12.6 4.1 4.1 4.1 4.2
10.0 11.4 2.0 9.7 15.0 8.2 2.9 10.3 5.8 0.7 0.7 4.0 0.1 0.1 0.1 1.7 0.8 0.2 0.1 0.1 0.8 1.9 0.4 0.2 0.1 0.1 4.6 0.5 0.2 0.2 0.2 2.4 15.0 15.0 4.2 7.9 12.3 8.4 5.2 4.1 4.7 4.1 4.1
7.1 0.8 15.0 15.0 4.1 2.1 2.0 2.1 0.9 0.4 0.1 0.2 0.1 0.0 0.1 0.1 0.1 0.4 2.2 2.2 5.1 7.2 11.8 1.3 0.1 0.1 0.1 0.2 0.2 0.2 0.3 1.9 6.1 0.6 0.6 0.4 8.0 5.8 4.2 4.1 4.1 4.1 5.6
1.9 2.2 10.0 2.4 1.2 1.1 1.9 0.8 2.4 5.2 0.2 0.1 0.1 0.1 0.1 0.1 0.1 0.1 0.4 4.4 14.2 15.0 15.0 9.6 9.2 2.8 1.5 1.3 0.1 1.7 15.0 15.0 0.3 0.3 0.1 0.1 1.1 2.7 15.0 14.7 4.8 4.4 14.4
5.9 4.8 5.6 4.8 1.9 2.3 1.2 0.8 2.4 2.0 0.8 0.4 0.1 0.1 0.1 0.1 0.1 0.1 0.6 2.4 7.4 12.9 15.0 15.0 15.0 15.0 15.0 15.0 15.0 15.0 0.1 0.5 2.2 1.4 0.2 0.1 0.1 0.2 3.4 15.0 15.0 4.1 15.0